TimeEDT,TemperatureF,Dew PointF,Humidity,Sea Level PressureIn,VisibilityMPH,Wind Direction,Wind SpeedMPH,Gust SpeedMPH,PrecipitationIn,Events,Conditions,WindDirDegrees,DateUTC
12:53 AM,72.0,69.1,91,30.00,10.0,SSE,5.8,-,N/A,,Partly Cloudy,150,2013-03-23 04:53:00
1:53 AM,72.0,70.0,93,30.00,10.0,South,4.6,-,N/A,,Clear,170,2013-03-23 05:53:00
2:53 AM,72.0,70.0,93,29.98,10.0,SSE,5.8,-,N/A,,Scattered Clouds,160,2013-03-23 06:53:00
3:10 AM,73.4,71.6,94,29.98,10.0,SSE,5.8,-,N/A,,Scattered Clouds,160,2013-03-23 07:10:00
3:22 AM,73.4,71.6,94,29.97,10.0,South,6.9,-,N/A,,Mostly Cloudy,190,2013-03-23 07:22:00
3:36 AM,73.4,71.6,94,29.97,10.0,South,8.1,-,N/A,,Overcast,190,2013-03-23 07:36:00
3:53 AM,73.0,71.1,93,29.96,10.0,South,9.2,-,N/A,,Mostly Cloudy,190,2013-03-23 07:53:00
4:53 AM,73.0,71.1,93,29.94,10.0,SSW,9.2,-,N/A,,Partly Cloudy,200,2013-03-23 08:53:00
5:53 AM,73.0,72.0,96,29.95,10.0,South,5.8,-,N/A,,Partly Cloudy,180,2013-03-23 09:53:00
6:53 AM,73.0,71.1,93,29.96,10.0,South,3.5,-,N/A,,Clear,180,2013-03-23 10:53:00
7:53 AM,73.0,71.1,93,29.97,10.0,South,5.8,-,N/A,,Clear,170,2013-03-23 11:53:00
8:49 AM,75.2,73.4,94,29.99,10.0,South,8.1,-,N/A,,Partly Cloudy,180,2013-03-23 12:49:00
8:53 AM,75.9,73.0,91,29.99,10.0,South,10.4,-,N/A,,Scattered Clouds,190,2013-03-23 12:53:00
9:00 AM,77.0,73.4,89,29.99,10.0,South,6.9,-,N/A,,Mostly Cloudy,190,2013-03-23 13:00:00
9:53 AM,79.0,72.0,79,29.99,10.0,South,11.5,-,N/A,,Mostly Cloudy,190,2013-03-23 13:53:00
10:00 AM,80.6,73.4,79,29.99,10.0,South,11.5,-,N/A,,Mostly Cloudy,190,2013-03-23 14:00:00
10:22 AM,80.6,71.6,74,29.99,10.0,SSW,10.4,-,N/A,,Scattered Clouds,200,2013-03-23 14:22:00
10:53 AM,82.0,70.0,67,29.99,10.0,SSW,9.2,-,N/A,,Scattered Clouds,210,2013-03-23 14:53:00
11:53 AM,82.0,68.0,62,29.97,10.0,South,6.9,-,N/A,,Scattered Clouds,180,2013-03-23 15:53:00
12:23 PM,84.2,69.8,62,29.96,10.0,South,11.5,-,N/A,,Mostly Cloudy,170,2013-03-23 16:23:00
12:38 PM,86.0,69.8,58,29.95,10.0,South,12.7,-,N/A,,Mostly Cloudy,170,2013-03-23 16:38:00
12:53 PM,87.1,69.1,55,29.94,10.0,South,11.5,-,N/A,,Partly Cloudy,180,2013-03-23 16:53:00
1:53 PM,87.1,66.0,49,29.92,10.0,SSE,16.1,21.9,N/A,,Clear,160,2013-03-23 17:53:00
2:53 PM,87.1,64.9,48,29.90,10.0,South,12.7,19.6,N/A,,Clear,180,2013-03-23 18:53:00
3:53 PM,88.0,64.9,46,29.87,10.0,SSE,12.7,21.9,N/A,,Clear,160,2013-03-23 19:53:00
4:53 PM,84.9,68.0,57,29.85,10.0,South,13.8,-,N/A,,Clear,180,2013-03-23 20:53:00
5:53 PM,84.0,69.1,61,29.84,10.0,South,10.4,-,N/A,,Clear,180,2013-03-23 21:53:00
6:53 PM,82.0,68.0,62,29.85,10.0,South,11.5,-,N/A,,Clear,170,2013-03-23 22:53:00
7:53 PM,79.0,69.1,72,29.87,10.0,SSE,9.2,-,N/A,,Clear,150,2013-03-23 23:53:00
8:53 PM,77.0,70.0,79,29.89,10.0,SSE,9.2,-,N/A,,Clear,150,2013-03-24 00:53:00
9:53 PM,75.9,71.1,85,29.91,10.0,SSE,5.8,-,N/A,,Clear,160,2013-03-24 01:53:00
10:53 PM,75.9,71.1,85,29.91,10.0,SSE,5.8,-,N/A,,Clear,160,2013-03-24 02:53:00
11:53 PM,75.0,71.1,87,29.92,10.0,SSE,3.5,-,N/A,,Scattered Clouds,150,2013-03-24 03:53:00